EW5095 Weather Reports


time (UTC)temp
C
wind
direction
speed
KPH
gust
KPH
rain 1hr
cm
rain 24hr
cm
rain mn
cm
humidity
%
barometer
mb
20260506025505 19 102 16.1 29.0 0.00 0.00 0.00 45 1008.0
20260506025005 20 91 17.7 25.7 0.00 0.00 0.00 45 1008.1
20260506024505 20 84 19.3 29.0 0.00 0.00 0.00 44 1007.9
20260506024005 20 92 14.5 29.0 0.00 0.00 0.00 43 1007.7
20260506023505 20 99 14.5 22.5 0.00 0.00 0.00 43 1007.6
20260506023004 20 90 14.5 22.5 0.00 0.00 0.00 42 1007.4
20260506022505 20 106 12.9 19.3 0.00 0.00 0.00 42 1007.6
20260506022004 21 98 14.5 22.5 0.00 0.00 0.00 41 1007.6
20260506021504 21 99 16.1 22.5 0.00 0.00 0.00 41 1007.4
20260506021004 21 93 14.5 22.5 0.00 0.00 0.00 40 1007.1
20260506020504 21 110 14.5 22.5 0.00 0.00 0.00 40 1006.9
20260506020005 21 91 12.9 22.5 0.00 0.00 0.00 40 1007.0
20260506015505 21 91 14.5 25.7 0.00 0.00 0.00 39 1006.8
20260506014005 22 98 12.9 22.5 0.00 0.00 0.00 38 1006.5
20260506013505 22 105 14.5 22.5 0.00 0.00 0.00 38 1006.4
20260506013005 22 92 14.5 22.5 0.00 0.00 0.00 38 1006.3
20260506012504 22 86 14.5 22.5 0.00 0.00 0.00 37 1006.4
20260506012005 22 96 14.5 22.5 0.00 0.00 0.00 37 1006.1
20260506011505 22 95 14.5 20.9 0.00 0.00 0.00 37 1006.0
20260506011005 23 90 12.9 20.9 0.00 0.00 0.00 36 1006.0
20260506010505 23 98 14.5 22.5 0.00 0.00 0.00 36 1005.9
20260506010005 23 87 16.1 27.4 0.00 0.00 0.00 35 1005.9
20260506005504 23 102 16.1 27.4 0.00 0.00 0.00 35 1005.9
20260506005005 23 88 14.5 24.1 0.00 0.00 0.00 34 1006.0
20260506004505 23 95 12.9 22.5 0.00 0.00 0.00 33 1005.9
20260506003504 24 74 14.5 24.1 0.00 0.00 0.00 33 1005.7
20260506003004 24 78 16.1 24.1 0.00 0.00 0.00 32 1005.9
20260506002505 24 91 14.5 24.1 0.00 0.00 0.00 32 1005.7
20260506002005 24 83 14.5 24.1 0.00 0.00 0.00 31 1005.7
20260506001505 24 92 12.9 24.1 0.00 0.00 0.00 31 1005.8
20260506000504 25 83 9.7 19.3 0.00 0.00 0.00 30 1005.6
20260505235505 25 89 3.2 11.3 0.00 0.00 0.00 30 1005.5
20260505235004 25 88 3.2 4.8 0.00 0.00 0.00 30 1005.4
20260505234505 25 87 4.8 9.7 0.00 0.00 0.00 29 1005.4
20260505233504 25 90 4.8 16.1 0.00 0.00 0.00 29 1005.2
20260505233004 25 88 4.8 16.1 0.00 0.00 0.00 28 1005.5
20260505232505 26 144 9.7 22.5 0.00 0.00 0.00 28 1005.3
20260505232004 26 96 9.7 22.5 0.00 0.00 0.00 28 1005.2
20260505231505 26 84 8.0 22.5 0.00 0.00 0.00 27 1005.1
20260505231005 26 127 8.0 16.1 0.00 0.00 0.00 27 1005.1
20260505230005 27 130 6.4 19.3 0.00 0.00 0.00 26 1005.2
20260505225504 27 109 9.7 19.3 0.00 0.00 0.00 26 1005.1
20260505224504 27 38 4.8 16.1 0.00 0.00 0.00 25 1004.9
20260505224005 27 17 4.8 14.5 0.00 0.00 0.00 24 1004.8
20260505223504 27 76 8.0 19.3 0.00 0.00 0.00 24 1004.5
20260505223005 27 49 8.0 19.3 0.00 0.00 0.00 24 1004.5
20260505222504 27 54 9.7 19.3 0.00 0.00 0.00 24 1004.4
20260505222005 27 12 11.3 19.3 0.00 0.00 0.00 24 1004.5
20260505221505 27 36 9.7 19.3 0.00 0.00 0.00 25 1004.5
20260505221005 28 353 9.7 16.1 0.00 0.00 0.00 24 1004.9
20260505220505 28 336 8.0 19.3 0.00 0.00 0.00 24 1004.7
20260505220004 28 45 4.8 19.3 0.00 0.00 0.00 23 1004.8
20260505215504 28 205 4.8 11.3 0.00 0.00 0.00 23 1004.8
20260505215005 28 6 8.0 19.3 0.00 0.00 0.00 23 1004.6
20260505214504 29 32 12.9 19.3 0.00 0.00 0.00 23 1005.0
20260505214004 30 351 16.1 32.2 0.00 0.00 0.00 22 1004.7
20260505213504 30 345 17.7 32.2 0.00 0.00 0.00 21 1004.8
20260505213005 30 289 17.7 32.2 0.00 0.00 0.00 19 1004.6
20260505212505 31 293 19.3 29.0 0.00 0.00 0.00 19 1005.0
20260505212005 31 259 16.1 33.8 0.00 0.00 0.00 19 1004.8
20260505211504 31 272 11.3 33.8 0.00 0.00 0.00 19 1004.8
20260505211005 31 296 8.0 22.5 0.00 0.00 0.00 20 1004.7
20260505210504 31 239 4.8 16.1 0.00 0.00 0.00 20 1004.7
20260505210004 31 301 8.0 19.3 0.00 0.00 0.00 21 1004.7
20260505205504 31 260 8.0 19.3 0.00 0.00 0.00 21 1004.6
20260505205005 31 323 4.8 16.1 0.00 0.00 0.00 21 1004.5
20260505204504 30 241 3.2 11.3 0.00 0.00 0.00 21 1004.7
20260505204004 30 337 4.8 16.1 0.00 0.00 0.00 22 1005.0
20260505203505 30 15 8.0 19.3 0.00 0.00 0.00 22 1005.0
20260505203004 30 21 6.4 19.3 0.00 0.00 0.00 22 1005.0
20260505202504 30 12 8.0 19.3 0.00 0.00 0.00 23 1004.9
20260505202004 30 316 11.3 19.3 0.00 0.00 0.00 22 1005.0
20260505201504 30 352 12.9 20.9 0.00 0.00 0.00 22 1005.1
20260505200504 30 345 12.9 22.5 0.00 0.00 0.00 22 1005.2
20260505200004 31 333 16.1 24.1 0.00 0.00 0.00 21 1005.3
20260505195504 31 342 16.1 29.0 0.00 0.00 0.00 22 1005.4
20260505195005 31 2 9.7 29.0 0.00 0.00 0.00 22 1005.2
20260505194504 31 17 8.0 20.9 0.00 0.00 0.00 22 1005.2
20260505194004 31 353 11.3 24.1 0.00 0.00 0.00 21 1005.3
20260505193504 31 324 12.9 24.1 0.00 0.00 0.00 21 1005.5
20260505193005 31 1 11.3 25.7 0.00 0.00 0.00 23 1005.5
20260505192504 30 316 11.3 25.7 0.00 0.00 0.00 23 1005.5
20260505192004 30 318 12.9 22.5 0.00 0.00 0.00 23 1005.5
20260505191504 30 327 11.3 22.5 0.00 0.00 0.00 23 1005.5
20260505191004 30 2 11.3 19.3 0.00 0.00 0.00 23 1005.6
20260505190504 30 339 12.9 25.7 0.00 0.00 0.00 22 1005.6
20260505190005 30 328 14.5 25.7 0.00 0.00 0.00 22 1005.5
20260505185504 30 321 14.5 27.4 0.00 0.00 0.00 23 1005.6
20260505185004 30 351 16.1 29.0 0.00 0.00 0.00 22 1005.5
20260505184505 30 338 16.1 29.0 0.00 0.00 0.00 23 1005.7
20260505184005 30 4 14.5 29.0 0.00 0.00 0.00 23 1005.7
20260505183504 30 357 14.5 25.7 0.00 0.00 0.00 22 1005.6
20260505183005 30 37 17.7 27.4 0.00 0.00 0.00 22 1005.7
20260505182504 30 336 19.3 32.2 0.00 0.00 0.00 22 1005.8
20260505182004 31 343 19.3 32.2 0.00 0.00 0.00 23 1005.8
20260505181504 31 339 16.1 24.1 0.00 0.00 0.00 22 1005.7
20260505181004 30 30 14.5 24.1 0.00 0.00 0.00 22 1005.7
20260505180504 30 13 12.9 24.1 0.00 0.00 0.00 22 1005.8
20260505180004 30 333 12.9 24.1 0.00 0.00 0.00 21 1006.0
20260505175004 30 351 19.3 29.0 0.00 0.00 0.00 21 1006.0
20260505174004 30 358 16.1 27.4 0.00 0.00 0.00 21 1006.2
20260505173505 30 353 16.1 32.2 0.00 0.00 0.00 21 1006.2
20260505173004 30 337 16.1 32.2 0.00 0.00 0.00 20 1006.4
20260505172504 30 358 17.7 27.4 0.00 0.00 0.00 20 1006.1
20260505172004 30 0 19.3 27.4 0.00 0.00 0.00 20 1006.0
20260505171505 30 1 19.3 29.0 0.00 0.00 0.00 20 1006.1
20260505171004 30 2 19.3 29.0 0.00 0.00 0.00 20 1006.2
20260505165504 30 359 16.1 25.7 0.00 0.00 0.00 19 1006.0
20260505165004 30 320 16.1 25.7 0.00 0.00 0.00 19 1006.0
20260505164004 30 335 14.5 25.7 0.00 0.00 0.00 20 1005.9
20260505163504 30 309 14.5 25.7 0.00 0.00 0.00 20 1006.0
20260505163004 29 323 16.1 27.4 0.00 0.00 0.00 21 1006.1
20260505162504 29 304 17.7 27.4 0.00 0.00 0.00 21 1006.1
20260505162004 29 309 16.1 25.7 0.00 0.00 0.00 20 1006.0
20260505161504 29 318 14.5 24.1 0.00 0.00 0.00 21 1005.9
20260505161005 29 295 16.1 25.7 0.00 0.00 0.00 21 1005.7
20260505160504 29 319 19.3 25.7 0.00 0.00 0.00 21 1005.8
20260505153004 28 328 16.1 29.0 0.00 0.00 0.00 23 1005.2
20260505152003 28 302 19.3 29.0 0.00 0.00 0.00 24 1005.3
20260505151005 27 307 19.3 32.2 0.00 0.00 0.00 25 1005.7
20260505150504 27 278 19.3 32.2 0.00 0.00 0.00 25 1005.7
20260505140504 24 275 16.1 25.7 0.00 0.00 0.00 34 1005.0
20260505124507 20 272 14.5 25.7 0.00 0.00 0.00 48 1004.4
20260505124006 20 260 16.1 25.7 0.00 0.00 0.00 52 1004.1
20260505123507 20 253 16.1 24.1 0.00 0.00 0.00 54 1004.2
20260505123006 20 269 12.9 24.1 0.00 0.00 0.00 57 1004.2
20260505122507 20 255 11.3 24.1 0.00 0.00 0.00 59 1004.1
20260505122006 19 255 9.7 20.9 0.00 0.00 0.00 60 1004.0
20260505121507 19 265 8.0 19.3 0.00 0.00 0.00 61 1003.7
20260505121007 19 263 9.7 19.3 0.00 0.00 0.00 62 1003.7
20260505120507 19 248 9.7 19.3 0.00 0.00 0.00 63 1003.7
20260505120007 19 254 11.3 19.3 0.00 0.00 0.00 64 1003.6
20260505115507 19 255 12.9 19.3 0.00 0.00 0.00 65 1003.9
20260505115006 19 265 12.9 22.5 0.00 0.00 0.00 66 1003.9
20260505114506 19 263 14.5 22.5 0.00 0.00 0.00 67 1004.0
20260505114006 19 247 12.9 22.5 0.00 0.00 0.00 68 1003.9
20260505113507 19 247 11.3 19.3 0.00 0.00 0.00 67 1004.1
20260505113007 19 246 11.3 19.3 0.00 0.00 0.00 67 1003.9
20260505112506 19 251 9.7 19.3 0.00 0.00 0.00 67 1003.8
20260505111507 19 243 12.9 22.5 0.00 0.00 0.00 67 1003.6
20260505111006 19 253 11.3 22.5 0.00 0.00 0.00 66 1003.9
20260505110507 19 244 9.7 19.3 0.00 0.00 0.00 66 1003.8
20260505102007 20 260 8.0 14.5 0.00 0.00 0.00 63 1003.5
20260505101506 20 249 9.7 19.3 0.00 0.00 0.00 63 1003.5
20260505101006 20 244 11.3 19.3 0.00 0.00 0.00 63 1003.7
20260505100506 20 245 11.3 19.3 0.00 0.00 0.00 62 1003.6
20260505100006 20 244 11.3 19.3 0.00 0.00 0.00 62 1003.5
20260505095507 21 233 9.7 16.1 0.00 0.00 0.00 61 1003.4
20260505095006 21 253 9.7 16.1 0.00 0.00 0.00 60 1003.5
20260505094507 21 233 9.7 16.1 0.00 0.00 0.00 60 1003.4
20260505094006 21 239 9.7 19.3 0.00 0.00 0.00 60 1003.4
20260505093506 21 236 11.3 20.9 0.00 0.00 0.00 60 1003.6
20260505093006 21 244 16.1 24.1 0.00 0.00 0.00 60 1003.5
20260505092506 21 236 16.1 32.2 0.00 0.00 0.00 60 1003.5
20260505092006 21 242 14.5 32.2 0.00 0.00 0.00 60 1003.4
20260505091506 21 230 12.9 25.7 0.00 0.00 0.00 59 1003.4
20260505091007 21 236 9.7 20.9 0.00 0.00 0.00 59 1003.3
20260505090506 21 222 9.7 19.3 0.00 0.00 0.00 58 1003.5
20260505090007 21 226 11.3 20.9 0.00 0.00 0.00 58 1003.3
20260505085007 22 245 12.9 22.5 0.00 0.00 0.00 57 1003.3
20260505084506 22 237 12.9 22.5 0.00 0.00 0.00 57 1003.4
20260505084006 22 237 16.1 25.7 0.00 0.00 0.00 57 1003.5
20260505083507 22 233 16.1 25.7 0.00 0.00 0.00 56 1003.5
20260505083006 22 215 12.9 25.7 0.00 0.00 0.00 56 1003.4
20260505082006 22 239 11.3 25.7 0.00 0.00 0.00 55 1003.5
20260505081507 22 238 14.5 25.7 0.00 0.00 0.00 54 1003.5
20260505081006 22 218 14.5 24.1 0.00 0.00 0.00 53 1003.5
20260505080507 22 213 14.5 24.1 0.00 0.00 0.00 53 1003.6
20260505080006 22 215 16.1 22.5 0.00 0.00 0.00 52 1003.6
20260505075506 22 226 14.5 22.5 0.00 0.00 0.00 52 1003.5
20260505075007 23 215 14.5 20.9 0.00 0.00 0.00 51 1003.5
20260505074006 23 222 14.5 20.9 0.00 0.00 0.00 50 1003.9
20260505073506 23 228 16.1 25.7 0.00 0.00 0.00 49 1004.0
20260505073006 23 217 16.1 25.7 0.00 0.00 0.00 48 1003.9
20260505072507 23 218 14.5 25.7 0.00 0.00 0.00 47 1004.1
20260505072006 23 218 14.5 24.1 0.00 0.00 0.00 46 1004.0
20260505071507 23 217 16.1 24.1 0.00 0.00 0.00 46 1004.1
20260505071007 23 230 14.5 24.1 0.00 0.00 0.00 45 1004.2
20260505070506 23 227 14.5 25.7 0.00 0.00 0.00 43 1004.2
20260505070006 23 230 14.5 25.7 0.00 0.00 0.00 42 1004.2
20260505065506 23 229 14.5 25.7 0.00 0.00 0.00 41 1004.2
20260505065007 23 209 12.9 24.1 0.00 0.00 0.00 37 1004.2
20260505064507 23 218 9.7 22.5 0.00 0.00 0.00 33 1004.1
20260505064006 23 208 9.7 19.3 0.00 0.00 0.00 29 1004.1
20260505063506 23 212 11.3 19.3 0.00 0.00 0.00 28 1004.2
20260505063006 23 207 12.9 19.3 0.00 0.00 0.00 28 1004.4
20260505062506 24 207 12.9 19.3 0.00 0.00 0.00 27 1004.5
20260505062007 24 210 9.7 19.3 0.00 0.00 0.00 26 1004.6
20260505060506 25 207 8.0 11.3 0.00 0.00 0.00 24 1004.5
20260505055506 25 227 4.8 11.3 0.00 0.00 0.00 23 1004.6
20260505055006 25 228 8.0 19.3 0.00 0.00 0.00 23 1004.6
20260505054506 25 221 9.7 19.3 0.00 0.00 0.00 22 1004.6
20260505054006 25 245 9.7 19.3 0.00 0.00 0.00 22 1004.6
20260505053506 25 245 8.0 16.1 0.00 0.00 0.00 22 1004.5
20260505052506 25 250 8.0 16.1 0.00 0.00 0.00 22 1004.5
20260505052006 25 248 8.0 16.1 0.00 0.00 0.00 22 1004.5
20260505051006 25 250 11.3 19.3 0.00 0.00 0.00 22 1004.4
20260505050506 25 243 11.3 19.3 0.00 0.00 0.00 22 1004.5
20260505041006 25 255 9.7 19.3 0.00 0.00 0.00 21 1004.8
20260505040505 25 256 11.3 20.9 0.00 0.00 0.00 21 1004.8
20260505040006 25 263 11.3 20.9 0.00 0.00 0.00 21 1004.5
20260505035506 25 264 11.3 19.3 0.00 0.00 0.00 21 1004.5
20260505035007 25 262 11.3 19.3 0.00 0.00 0.00 21 1004.4
20260505034507 25 263 9.7 19.3 0.00 0.00 0.00 21 1004.3
20260505034005 25 260 9.7 19.3 0.00 0.00 0.00 22 1004.4
20260505033006 25 252 8.0 14.5 0.00 0.00 0.00 23 1004.3
20260505032506 25 246 8.0 14.5 0.00 0.00 0.00 23 1004.1
20260505032006 25 251 8.0 14.5 0.00 0.00 0.00 23 1004.2
20260505031506 25 248 8.0 14.5 0.00 0.00 0.00 23 1004.3
20260505031006 25 250 8.0 14.5 0.00 0.00 0.00 23 1004.1
20260505030506 25 258 8.0 14.5 0.00 0.00 0.00 23 1004.0
20260505030006 25 255 8.0 14.5 0.00 0.00 0.00 23 1003.9